"Sample Date","Sample Time","Sensor Name","Sample Value","Units","Flow Rate","Sample Interval","Sample Volume","Laser Status","Number Channels","Micron Size 0","Counts/Channel 0","Micron Size 1","Counts/Channel 1","Micron Size 2","Counts/Channel 2","Micron Size 3","Counts/Channel 3","Micron Size 4","Counts/Channel 4","Micron Size 5","Counts/Channel 5","Micron Size 6","Counts/Channel 6","Micron Size 7","Counts/Channel 7","Micron Size 8","Counts/Channel 8","Micron Size 9","Counts/Channel 9","Micron Size 10","Counts/Channel 10","Micron Size 11","Counts/Channel 11","Micron Size 12","Counts/Channel 12","Micron Size 13","Counts/Channel 13","Micron Size 14","Counts/Channel 14","Micron Size 15","Counts/Channel 15","Micron Size 16","Counts/Channel 16","Micron Size 17","Counts/Channel 17","Micron Size 18","Counts/Channel 18","Micron Size 19","Counts/Channel 19","Micron Size 20","Counts/Channel 20","Micron Size 21","Counts/Channel 21","Micron Size 22","Counts/Channel 22","Micron Size 23","Counts/Channel 23","Micron Size 24","Counts/Channel 24","Micron Size 25","Counts/Channel 25","Micron Size 26","Counts/Channel 26","Micron Size 27","Counts/Channel 27","Micron Size 28","Counts/Channel 28","Micron Size 29","Counts/Channel 29","Micron Size 30","Counts/Channel 30","Micron Size 31","Counts/Channel 31"
"07/04/06","18:00:02","AMMA06",54912.000,"cc",28291.629,6.00,2829.163,1,6,0.100,26517.000,0.200,25164.000,0.300,2372.000,0.500,532.000,1.000,327.000,5.000,0
"07/04/06","18:00:08","AMMA06",55455.000,"cc",28273.748,6.00,2827.375,1,6,0.100,26972.000,0.200,25106.000,0.300,2479.000,0.500,529.000,1.000,369.000,5.000,0
"07/04/06","18:00:14","AMMA06",54812.000,"cc",28326.160,6.00,2832.616,1,6,0.100,26501.000,0.200,25129.000,0.300,2341.000,0.500,515.000,1.000,326.000,5.000,0
"07/04/06","18:00:20","AMMA06",55229.000,"cc",28340.508,6.00,2834.051,1,6,0.100,26748.000,0.200,25052.000,0.300,2547.000,0.500,533.000,1.000,349.000,5.000,0
"07/04/06","18:00:26","AMMA06",54584.000,"cc",28312.525,6.00,2831.253,1,6,0.100,26665.000,0.200,24769.000,0.300,2299.000,0.500,515.000,1.000,336.000,5.000,0
"07/04/06","18:00:32","AMMA06",55295.000,"cc",28290.469,6.00,2829.047,1,6,0.100,26943.000,0.200,25062.000,0.300,2395.000,0.500,552.000,1.000,343.000,5.000,0
"07/04/06","18:00:38","AMMA06",55237.000,"cc",28272.428,6.00,2827.243,1,6,0.100,26855.000,0.200,25107.000,0.300,2414.000,0.500,500.000,1.000,360.000,5.000,1.000
"07/04/06","18:00:44","AMMA06",55337.000,"cc",28301.035,6.00,2830.104,1,6,0.100,27012.000,0.200,25050.000,0.300,2405.000,0.500,540.000,1.000,330.000,5.000,0
"07/04/06","18:00:50","AMMA06",55560.000,"cc",28386.697,6.00,2838.670,1,6,0.100,27035.000,0.200,25196.000,0.300,2483.000,0.500,541.000,1.000,305.000,5.000,0
"07/04/06","18:00:56","AMMA06",55195.000,"cc",28319.744,6.00,2831.975,1,6,0.100,26777.000,0.200,25191.000,0.300,2372.000,0.500,567.000,1.000,288.000,5.000,0
"07/04/06","18:01:02","AMMA06",54723.000,"cc",28328.236,6.00,2832.824,1,6,0.100,26649.000,0.200,24916.000,0.300,2295.000,0.500,507.000,1.000,356.000,5.000,0
"07/04/06","18:01:08","AMMA06",55309.000,"cc",28283.535,6.00,2828.354,1,6,0.100,26905.000,0.200,25099.000,0.300,2431.000,0.500,547.000,1.000,327.000,5.000,0
"07/04/06","18:01:14","AMMA06",54782.000,"cc",28335.420,6.00,2833.542,1,6,0.100,26592.000,0.200,24967.000,0.300,2388.000,0.500,519.000,1.000,316.000,5.000,0
"07/04/06","18:01:20","AMMA06",55333.000,"cc",28328.393,6.00,2832.839,1,6,0.100,26776.000,0.200,25285.000,0.300,2432.000,0.500,520.000,1.000,320.000,5.000,0
"07/04/06","18:01:26","AMMA06",55177.000,"cc",28328.330,6.00,2832.833,1,6,0.100,26499.000,0.200,25330.000,0.300,2456.000,0.500,550.000,1.000,341.000,5.000,1.000
"07/04/06","18:01:32","AMMA06",54749.000,"cc",28310.807,6.00,2831.081,1,6,0.100,26550.000,0.200,24920.000,0.300,2387.000,0.500,546.000,1.000,346.000,5.000,0
"07/04/06","18:01:38","AMMA06",54814.000,"cc",28292.240,6.00,2829.224,1,6,0.100,26683.000,0.200,24902.000,0.300,2349.000,0.500,501.000,1.000,378.000,5.000,1.000
"07/04/06","18:01:44","AMMA06",54836.000,"cc",28340.172,6.00,2834.017,1,6,0.100,26513.000,0.200,25070.000,0.300,2361.000,0.500,580.000,1.000,312.000,5.000,0
"07/04/06","18:01:50","AMMA06",55110.000,"cc",28300.193,6.00,2830.020,1,6,0.100,26733.000,0.200,25131.000,0.300,2405.000,0.500,528.000,1.000,313.000,5.000,0
"07/04/06","18:01:56","AMMA06",55033.000,"cc",28317.022,6.00,2831.702,1,6,0.100,26934.000,0.200,24950.000,0.300,2272.000,0.500,534.000,1.000,343.000,5.000,0
"07/04/06","18:02:02","AMMA06",54828.000,"cc",28303.541,6.00,2830.354,1,6,0.100,26554.000,0.200,25044.000,0.300,2341.000,0.500,539.000,1.000,350.000,5.000,0
"07/04/06","18:02:08","AMMA06",54960.000,"cc",28311.787,6.00,2831.179,1,6,0.100,26512.000,0.200,25268.000,0.300,2377.000,0.500,508.000,1.000,295.000,5.000,0
"07/04/06","18:02:14","AMMA06",54622.000,"cc",28312.613,6.00,2831.262,1,6,0.100,26264.000,0.200,25185.000,0.300,2320.000,0.500,524.000,1.000,329.000,5.000,0
"07/04/06","18:02:20","AMMA06",54822.000,"cc",28319.098,6.00,2831.910,1,6,0.100,26563.000,0.200,25025.000,0.300,2328.000,0.500,554.000,1.000,350.000,5.000,2.000
"07/04/06","18:02:26","AMMA06",55718.000,"cc",28313.320,6.00,2831.332,1,6,0.100,26663.000,0.200,25683.000,0.300,2486.000,0.500,544.000,1.000,342.000,5.000,0
"07/04/06","18:02:32","AMMA06",54741.000,"cc",28255.219,6.00,2825.522,1,6,0.100,26308.000,0.200,25171.000,0.300,2397.000,0.500,528.000,1.000,337.000,5.000,0
"07/04/06","18:02:38","AMMA06",55386.000,"cc",28343.506,6.00,2834.351,1,6,0.100,26726.000,0.200,25348.000,0.300,2438.000,0.500,532.000,1.000,342.000,5.000,0
"07/04/06","18:02:44","AMMA06",55625.000,"cc",28372.008,6.00,2837.201,1,6,0.100,26765.000,0.200,25604.000,0.300,2422.000,0.500,523.000,1.000,311.000,5.000,0
"07/04/06","18:02:50","AMMA06",54885.000,"cc",28330.162,6.00,2833.016,1,6,0.100,26586.000,0.200,25174.000,0.300,2278.000,0.500,533.000,1.000,314.000,5.000,0
"07/04/06","18:02:56","AMMA06",54913.000,"cc",28345.172,6.00,2834.517,1,6,0.100,26477.000,0.200,25305.000,0.300,2331.000,0.500,483.000,1.000,317.000,5.000,0
"07/04/06","18:03:02","AMMA06",55054.000,"cc",28304.990,6.00,2830.499,1,6,0.100,26538.000,0.200,25309.000,0.300,2390.000,0.500,520.000,1.000,297.000,5.000,0
"07/04/06","18:03:08","AMMA06",55410.000,"cc",28286.815,6.00,2828.682,1,6,0.100,26844.000,0.200,25306.000,0.300,2433.000,0.500,515.000,1.000,312.000,5.000,0
"07/04/06","18:03:14","AMMA06",55022.000,"cc",28320.898,6.00,2832.090,1,6,0.100,26448.000,0.200,25345.000,0.300,2328.000,0.500,533.000,1.000,367.000,5.000,1.000
"07/04/06","18:03:20","AMMA06",55159.000,"cc",28313.975,6.00,2831.398,1,6,0.100,26910.000,0.200,25023.000,0.300,2373.000,0.500,497.000,1.000,356.000,5.000,0
"07/04/06","18:03:26","AMMA06",55221.000,"cc",28263.516,6.00,2826.352,1,6,0.100,26622.000,0.200,25383.000,0.300,2417.000,0.500,502.000,1.000,296.000,5.000,1.000
"07/04/06","18:03:32","AMMA06",55840.000,"cc",28358.242,6.00,2835.825,1,6,0.100,26992.000,0.200,25613.000,0.300,2360.000,0.500,504.000,1.000,370.000,5.000,1.000
"07/04/06","18:03:38","AMMA06",55261.000,"cc",28302.428,6.00,2830.243,1,6,0.100,26818.000,0.200,25260.000,0.300,2297.000,0.500,568.000,1.000,318.000,5.000,0
"07/04/06","18:03:44","AMMA06",55294.000,"cc",28327.840,6.00,2832.784,1,6,0.100,26638.000,0.200,25370.000,0.300,2460.000,0.500,511.000,1.000,315.000,5.000,0
"07/04/06","18:03:50","AMMA06",55500.000,"cc",28306.229,6.00,2830.623,1,6,0.100,26867.000,0.200,25444.000,0.300,2373.000,0.500,488.000,1.000,328.000,5.000,0
"07/04/06","18:03:56","AMMA06",55518.000,"cc",28320.205,6.00,2832.021,1,6,0.100,26895.000,0.200,25455.000,0.300,2309.000,0.500,509.000,1.000,350.000,5.000,0
"07/04/06","18:04:02","AMMA06",55372.000,"cc",28292.441,6.00,2829.244,1,6,0.100,27078.000,0.200,25138.000,0.300,2324.000,0.500,530.000,1.000,302.000,5.000,0
"07/04/06","18:04:08","AMMA06",55953.000,"cc",28315.406,6.00,2831.541,1,6,0.100,27423.000,0.200,25358.000,0.300,2295.000,0.500,533.000,1.000,344.000,5.000,0
"07/04/06","18:04:14","AMMA06",56503.000,"cc",28270.250,6.00,2827.025,1,6,0.100,27875.000,0.200,25463.000,0.300,2335.000,0.500,493.000,1.000,336.000,5.000,1.000
"07/04/06","18:04:20","AMMA06",56300.000,"cc",28312.035,6.00,2831.204,1,6,0.100,27746.000,0.200,25332.000,0.300,2377.000,0.500,527.000,1.000,317.000,5.000,1.000
"07/04/06","18:04:26","AMMA06",55951.000,"cc",28337.158,6.00,2833.716,1,6,0.100,27223.000,0.200,25507.000,0.300,2323.000,0.500,556.000,1.000,342.000,5.000,0
"07/04/06","18:04:32","AMMA06",55255.000,"cc",28346.004,6.00,2834.601,1,6,0.100,26628.000,0.200,25508.000,0.300,2279.000,0.500,520.000,1.000,320.000,5.000,0
"07/04/06","18:04:38","AMMA06",55670.000,"cc",28362.549,6.00,2836.255,1,6,0.100,26949.000,0.200,25502.000,0.300,2393.000,0.500,511.000,1.000,315.000,5.000,0
"07/04/06","18:04:44","AMMA06",55098.000,"cc",28308.717,6.00,2830.872,1,6,0.100,26772.000,0.200,25059.000,0.300,2403.000,0.500,544.000,1.000,320.000,5.000,0
"07/04/06","18:04:50","AMMA06",55243.000,"cc",28264.180,6.00,2826.418,1,6,0.100,26661.000,0.200,25416.000,0.300,2344.000,0.500,499.000,1.000,323.000,5.000,0
"07/04/06","18:04:56","AMMA06",55452.000,"cc",28298.326,6.00,2829.833,1,6,0.100,26651.000,0.200,25425.000,0.300,2451.000,0.500,576.000,1.000,349.000,5.000,0
"07/04/06","18:05:02","AMMA06",55321.000,"cc",28342.352,6.00,2834.235,1,6,0.100,26943.000,0.200,25179.000,0.300,2359.000,0.500,519.000,1.000,321.000,5.000,0
"07/04/06","18:05:08","AMMA06",55529.000,"cc",28288.027,6.00,2828.803,1,6,0.100,27273.000,0.200,25113.000,0.300,2272.000,0.500,550.000,1.000,321.000,5.000,0
"07/04/06","18:05:14","AMMA06",56162.000,"cc",28364.014,6.00,2836.402,1,6,0.100,27723.000,0.200,25255.000,0.300,2346.000,0.500,506.000,1.000,332.000,5.000,0
"07/04/06","18:05:20","AMMA06",56337.000,"cc",28275.084,6.00,2827.509,1,6,0.100,27923.000,0.200,25261.000,0.300,2331.000,0.500,509.000,1.000,313.000,5.000,0
"07/04/06","18:05:26","AMMA06",56039.000,"cc",28336.514,6.00,2833.652,1,6,0.100,27727.000,0.200,25246.000,0.300,2220.000,0.500,501.000,1.000,345.000,5.000,0
"07/04/06","18:05:32","AMMA06",55926.000,"cc",28330.346,6.00,2833.035,1,6,0.100,27654.000,0.200,25034.000,0.300,2355.000,0.500,545.000,1.000,338.000,5.000,0
"07/04/06","18:05:38","AMMA06",55555.000,"cc",28290.418,6.00,2829.042,1,6,0.100,27463.000,0.200,24949.000,0.300,2284.000,0.500,538.000,1.000,320.000,5.000,1.000
"07/04/06","18:05:44","AMMA06",55748.000,"cc",28346.518,6.00,2834.652,1,6,0.100,27734.000,0.200,24829.000,0.300,2329.000,0.500,513.000,1.000,343.000,5.000,0
"07/04/06","18:05:50","AMMA06",56649.000,"cc",28318.891,6.00,2831.889,1,6,0.100,28456.000,0.200,25021.000,0.300,2295.000,0.500,540.000,1.000,336.000,5.000,1.000
"07/04/06","18:05:56","AMMA06",56144.000,"cc",28268.973,6.00,2826.898,1,6,0.100,28110.000,0.200,24911.000,0.300,2274.000,0.500,529.000,1.000,320.000,5.000,0
"07/04/06","18:06:02","AMMA06",56151.000,"cc",28330.545,6.00,2833.055,1,6,0.100,28227.000,0.200,24691.000,0.300,2345.000,0.500,537.000,1.000,351.000,5.000,0
"07/04/06","18:06:08","AMMA06",55958.000,"cc",28335.934,6.00,2833.594,1,6,0.100,27966.000,0.200,24893.000,0.300,2258.000,0.500,532.000,1.000,308.000,5.000,1.000
"07/04/06","18:06:14","AMMA06",55418.000,"cc",28306.014,6.00,2830.602,1,6,0.100,27633.000,0.200,24508.000,0.300,2380.000,0.500,556.000,1.000,341.000,5.000,0
"07/04/06","18:06:20","AMMA06",55610.000,"cc",28315.830,6.00,2831.583,1,6,0.100,27788.000,0.200,24716.000,0.300,2272.000,0.500,511.000,1.000,321.000,5.000,2.000
"07/04/06","18:06:26","AMMA06",55628.000,"cc",28267.566,6.00,2826.757,1,6,0.100,27660.000,0.200,24712.000,0.300,2342.000,0.500,554.000,1.000,359.000,5.000,1.000
"07/04/06","18:06:32","AMMA06",55490.000,"cc",28304.479,6.00,2830.448,1,6,0.100,27937.000,0.200,24443.000,0.300,2264.000,0.500,495.000,1.000,350.000,5.000,1.000
"07/04/06","18:06:38","AMMA06",55974.000,"cc",28355.084,6.00,2835.509,1,6,0.100,27951.000,0.200,24852.000,0.300,2285.000,0.500,528.000,1.000,358.000,5.000,0
"07/04/06","18:06:44","AMMA06",55358.000,"cc",28342.154,6.00,2834.216,1,6,0.100,27879.000,0.200,24292.000,0.300,2295.000,0.500,511.000,1.000,380.000,5.000,1.000
"07/04/06","18:06:50","AMMA06",55588.000,"cc",28328.287,6.00,2832.829,1,6,0.100,27685.000,0.200,24681.000,0.300,2302.000,0.500,564.000,1.000,355.000,5.000,1.000
"07/04/06","18:06:56","AMMA06",55652.000,"cc",28335.125,6.00,2833.513,1,6,0.100,27972.000,0.200,24571.000,0.300,2201.000,0.500,534.000,1.000,374.000,5.000,0
"07/04/06","18:07:02","AMMA06",55443.000,"cc",28324.107,6.00,2832.411,1,6,0.100,27628.000,0.200,24693.000,0.300,2235.000,0.500,560.000,1.000,327.000,5.000,0
"07/04/06","18:07:08","AMMA06",55597.000,"cc",28300.594,6.00,2830.060,1,6,0.100,27693.000,0.200,24734.000,0.300,2307.000,0.500,525.000,1.000,338.000,5.000,0
"07/04/06","18:07:14","AMMA06",54582.000,"cc",28325.906,6.00,2832.591,1,6,0.100,27088.000,0.200,24245.000,0.300,2368.000,0.500,543.000,1.000,338.000,5.000,0
"07/04/06","18:07:20","AMMA06",55114.000,"cc",28288.588,6.00,2828.859,1,6,0.100,26953.000,0.200,24948.000,0.300,2363.000,0.500,497.000,1.000,353.000,5.000,0
"07/04/06","18:07:26","AMMA06",54653.000,"cc",28341.051,6.00,2834.105,1,6,0.100,26771.000,0.200,24706.000,0.300,2314.000,0.500,539.000,1.000,323.000,5.000,0
"07/04/06","18:07:32","AMMA06",55247.000,"cc",28309.881,6.00,2830.988,1,6,0.100,27146.000,0.200,24926.000,0.300,2328.000,0.500,511.000,1.000,336.000,5.000,0
"07/04/06","18:07:38","AMMA06",55215.000,"cc",28285.156,6.00,2828.516,1,6,0.100,27331.000,0.200,24635.000,0.300,2349.000,0.500,549.000,1.000,350.000,5.000,1.000
"07/04/06","18:07:44","AMMA06",54991.000,"cc",28297.547,6.00,2829.755,1,6,0.100,27299.000,0.200,24417.000,0.300,2371.000,0.500,549.000,1.000,355.000,5.000,0
"07/04/06","18:07:50","AMMA06",54839.000,"cc",28345.342,6.00,2834.534,1,6,0.100,27033.000,0.200,24565.000,0.300,2323.000,0.500,580.000,1.000,337.000,5.000,1.000
"07/04/06","18:07:56","AMMA06",54985.000,"cc",28305.453,6.00,2830.545,1,6,0.100,26915.000,0.200,24793.000,0.300,2387.000,0.500,551.000,1.000,339.000,5.000,0
"07/04/06","18:08:02","AMMA06",55204.000,"cc",28269.545,6.00,2826.955,1,6,0.100,27013.000,0.200,25005.000,0.300,2320.000,0.500,545.000,1.000,321.000,5.000,0
"07/04/06","18:08:08","AMMA06",54876.000,"cc",28343.641,6.00,2834.364,1,6,0.100,26811.000,0.200,24882.000,0.300,2325.000,0.500,507.000,1.000,350.000,5.000,1.000
"07/04/06","18:08:14","AMMA06",54760.000,"cc",28295.420,6.00,2829.542,1,6,0.100,26808.000,0.200,24772.000,0.300,2279.000,0.500,544.000,1.000,357.000,5.000,0
"07/04/06","18:08:20","AMMA06",54821.000,"cc",28325.047,6.00,2832.505,1,6,0.100,26482.000,0.200,25108.000,0.300,2333.000,0.500,542.000,1.000,356.000,5.000,0
"07/04/06","18:08:26","AMMA06",54452.000,"cc",28304.324,6.00,2830.433,1,6,0.100,26638.000,0.200,24614.000,0.300,2336.000,0.500,543.000,1.000,321.000,5.000,0
"07/04/06","18:08:32","AMMA06",54700.000,"cc",28363.865,6.00,2836.387,1,6,0.100,26737.000,0.200,24784.000,0.300,2314.000,0.500,532.000,1.000,332.000,5.000,1.000
"07/04/06","18:08:38","AMMA06",54717.000,"cc",28322.320,6.00,2832.232,1,6,0.100,26656.000,0.200,24962.000,0.300,2243.000,0.500,544.000,1.000,311.000,5.000,1.000
"07/04/06","18:08:44","AMMA06",54795.000,"cc",28283.164,6.00,2828.317,1,6,0.100,26838.000,0.200,24741.000,0.300,2333.000,0.500,541.000,1.000,341.000,5.000,1.000
"07/04/06","18:08:50","AMMA06",55277.000,"cc",28361.492,6.00,2836.149,1,6,0.100,27074.000,0.200,24893.000,0.300,2441.000,0.500,537.000,1.000,332.000,5.000,0
"07/04/06","18:08:56","AMMA06",55032.000,"cc",28321.754,6.00,2832.176,1,6,0.100,26984.000,0.200,24832.000,0.300,2381.000,0.500,498.000,1.000,337.000,5.000,0
"07/04/06","18:09:02","AMMA06",54776.000,"cc",28365.902,6.00,2836.590,1,6,0.100,26645.000,0.200,24956.000,0.300,2295.000,0.500,545.000,1.000,335.000,5.000,0
"07/04/06","18:09:08","AMMA06",54484.000,"cc",28303.123,6.00,2830.313,1,6,0.100,26354.000,0.200,24928.000,0.300,2320.000,0.500,528.000,1.000,352.000,5.000,2.000
"07/04/06","18:09:14","AMMA06",54411.000,"cc",28254.385,6.00,2825.439,1,6,0.100,26387.000,0.200,24904.000,0.300,2241.000,0.500,531.000,1.000,348.000,5.000,0
"07/04/06","18:09:20","AMMA06",54951.000,"cc",28295.033,6.00,2829.503,1,6,0.100,26776.000,0.200,24997.000,0.300,2321.000,0.500,529.000,1.000,328.000,5.000,0
"07/04/06","18:09:26","AMMA06",54466.000,"cc",28313.135,6.00,2831.314,1,6,0.100,26466.000,0.200,24830.000,0.300,2279.000,0.500,562.000,1.000,328.000,5.000,1.000
"07/04/06","18:09:32","AMMA06",54438.000,"cc",28341.988,6.00,2834.199,1,6,0.100,26550.000,0.200,24687.000,0.300,2348.000,0.500,538.000,1.000,314.000,5.000,1.000
"07/04/06","18:09:38","AMMA06",55083.000,"cc",28319.842,6.00,2831.984,1,6,0.100,26686.000,0.200,25140.000,0.300,2347.000,0.500,569.000,1.000,340.000,5.000,1.000
"07/04/06","18:09:44","AMMA06",54986.000,"cc",28310.836,6.00,2831.084,1,6,0.100,26875.000,0.200,24910.000,0.300,2315.000,0.500,564.000,1.000,321.000,5.000,1.000
"07/04/06","18:09:50","AMMA06",54998.000,"cc",28335.576,6.00,2833.558,1,6,0.100,26723.000,0.200,24929.000,0.300,2457.000,0.500,532.000,1.000,356.000,5.000,1.000
"07/04/06","18:09:56","AMMA06",54278.000,"cc",28291.420,6.00,2829.142,1,6,0.100,26220.000,0.200,24785.000,0.300,2397.000,0.500,549.000,1.000,327.000,5.000,0
"07/04/06","18:10:02","AMMA06",54347.000,"cc",28306.852,6.00,2830.685,1,6,0.100,26135.000,0.200,24991.000,0.300,2383.000,0.500,512.000,1.000,326.000,5.000,0
"07/04/06","18:10:08","AMMA06",54448.000,"cc",28378.568,6.00,2837.857,1,6,0.100,26292.000,0.200,24936.000,0.300,2365.000,0.500,532.000,1.000,323.000,5.000,0
"07/04/06","18:10:14","AMMA06",54501.000,"cc",28289.285,6.00,2828.929,1,6,0.100,26159.000,0.200,24972.000,0.300,2444.000,0.500,570.000,1.000,356.000,5.000,0
"07/04/06","18:10:20","AMMA06",55046.000,"cc",28304.014,6.00,2830.402,1,6,0.100,26616.000,0.200,25031.000,0.300,2489.000,0.500,583.000,1.000,327.000,5.000,0
"07/04/06","18:10:26","AMMA06",54973.000,"cc",28341.078,6.00,2834.108,1,6,0.100,26542.000,0.200,25120.000,0.300,2419.000,0.500,524.000,1.000,367.000,5.000,1.000
"07/04/06","18:10:32","AMMA06",54502.000,"cc",28319.443,6.00,2831.945,1,6,0.100,26268.000,0.200,24815.000,0.300,2445.000,0.500,598.000,1.000,376.000,5.000,0
"07/04/06","18:10:38","AMMA06",54448.000,"cc",28304.731,6.00,2830.473,1,6,0.100,26372.000,0.200,24739.000,0.300,2471.000,0.500,515.000,1.000,351.000,5.000,0
"07/04/06","18:10:44","AMMA06",54452.000,"cc",28365.654,6.00,2836.566,1,6,0.100,26116.000,0.200,25061.000,0.300,2397.000,0.500,562.000,1.000,316.000,5.000,0
"07/04/06","18:10:50","AMMA06",53924.000,"cc",28297.537,6.00,2829.754,1,6,0.100,26082.000,0.200,24551.000,0.300,2401.000,0.500,551.000,1.000,339.000,5.000,0
"07/04/06","18:10:56","AMMA06",54481.000,"cc",28278.043,6.00,2827.804,1,6,0.100,26368.000,0.200,24914.000,0.300,2283.000,0.500,545.000,1.000,369.000,5.000,2.000
"07/04/06","18:11:02","AMMA06",54759.000,"cc",28285.016,6.00,2828.502,1,6,0.100,26311.000,0.200,25130.000,0.300,2474.000,0.500,550.000,1.000,292.000,5.000,2.000
"07/04/06","18:11:08","AMMA06",54510.000,"cc",28349.541,6.00,2834.954,1,6,0.100,26203.000,0.200,24979.000,0.300,2428.000,0.500,557.000,1.000,342.000,5.000,1.000
"07/04/06","18:11:14","AMMA06",54573.000,"cc",28291.826,6.00,2829.183,1,6,0.100,26299.000,0.200,25009.000,0.300,2414.000,0.500,505.000,1.000,346.000,5.000,0
"07/04/06","18:11:20","AMMA06",54333.000,"cc",28283.111,6.00,2828.311,1,6,0.100,26113.000,0.200,24949.000,0.300,2377.000,0.500,555.000,1.000,339.000,5.000,0
"07/04/06","18:11:26","AMMA06",54423.000,"cc",28373.975,6.00,2837.398,1,6,0.100,25936.000,0.200,25199.000,0.300,2419.000,0.500,548.000,1.000,321.000,5.000,0
"07/04/06","18:11:32","AMMA06",54801.000,"cc",28307.768,6.00,2830.777,1,6,0.100,26244.000,0.200,25176.000,0.300,2481.000,0.500,554.000,1.000,345.000,5.000,1.000
"07/04/06","18:11:38","AMMA06",54690.000,"cc",28286.279,6.00,2828.628,1,6,0.100,26387.000,0.200,25036.000,0.300,2436.000,0.500,511.000,1.000,320.000,5.000,0
"07/04/06","18:11:44","AMMA06",54185.000,"cc",28328.285,6.00,2832.829,1,6,0.100,26258.000,0.200,24599.000,0.300,2472.000,0.500,521.000,1.000,334.000,5.000,1.000
"07/04/06","18:11:50","AMMA06",54430.000,"cc",28368.740,6.00,2836.874,1,6,0.100,25997.000,0.200,25146.000,0.300,2415.000,0.500,540.000,1.000,332.000,5.000,0
"07/04/06","18:11:56","AMMA06",54400.000,"cc",28327.516,6.00,2832.752,1,6,0.100,26129.000,0.200,24853.000,0.300,2525.000,0.500,557.000,1.000,336.000,5.000,0
"07/04/06","18:12:02","AMMA06",54275.000,"cc",28286.510,6.00,2828.651,1,6,0.100,25949.000,0.200,24993.000,0.300,2479.000,0.500,514.000,1.000,340.000,5.000,0
"07/04/06","18:12:08","AMMA06",54936.000,"cc",28301.522,6.00,2830.152,1,6,0.100,26543.000,0.200,25119.000,0.300,2426.000,0.500,524.000,1.000,324.000,5.000,0
"07/04/06","18:12:14","AMMA06",54730.000,"cc",28290.664,6.00,2829.067,1,6,0.100,26311.000,0.200,25205.000,0.300,2342.000,0.500,531.000,1.000,341.000,5.000,0
"07/04/06","18:12:20","AMMA06",54556.000,"cc",28300.668,6.00,2830.067,1,6,0.100,26307.000,0.200,24983.000,0.300,2434.000,0.500,507.000,1.000,325.000,5.000,0
"07/04/06","18:12:26","AMMA06",54465.000,"cc",28327.065,6.00,2832.707,1,6,0.100,26026.000,0.200,25154.000,0.300,2418.000,0.500,560.000,1.000,307.000,5.000,0
"07/04/06","18:12:32","AMMA06",54027.000,"cc",28362.143,6.00,2836.214,1,6,0.100,25759.000,0.200,24947.000,0.300,2490.000,0.500,514.000,1.000,317.000,5.000,0
"07/04/06","18:12:38","AMMA06",54321.000,"cc",28351.824,6.00,2835.183,1,6,0.100,26212.000,0.200,24951.000,0.300,2310.000,0.500,525.000,1.000,323.000,5.000,0
"07/04/06","18:12:44","AMMA06",54418.000,"cc",28315.779,6.00,2831.578,1,6,0.100,26140.000,0.200,24998.000,0.300,2392.000,0.500,555.000,1.000,333.000,5.000,0
"07/04/06","18:12:50","AMMA06",54610.000,"cc",28318.324,6.00,2831.833,1,6,0.100,26435.000,0.200,25002.000,0.300,2293.000,0.500,531.000,1.000,349.000,5.000,0
"07/04/06","18:12:56","AMMA06",53952.000,"cc",28365.684,6.00,2836.569,1,6,0.100,26093.000,0.200,24569.000,0.300,2458.000,0.500,509.000,1.000,323.000,5.000,0
"07/04/06","18:13:02","AMMA06",54694.000,"cc",28267.381,6.00,2826.738,1,6,0.100,26221.000,0.200,25254.000,0.300,2387.000,0.500,491.000,1.000,341.000,5.000,0
"07/04/06","18:13:08","AMMA06",53928.000,"cc",28294.356,6.00,2829.436,1,6,0.100,26015.000,0.200,24688.000,0.300,2387.000,0.500,510.000,1.000,328.000,5.000,0
"07/04/06","18:13:14","AMMA06",54645.000,"cc",28321.051,6.00,2832.105,1,6,0.100,26159.000,0.200,25292.000,0.300,2366.000,0.500,512.000,1.000,316.000,5.000,0
"07/04/06","18:13:20","AMMA06",54374.000,"cc",28310.268,6.00,2831.027,1,6,0.100,25754.000,0.200,25236.000,0.300,2454.000,0.500,584.000,1.000,346.000,5.000,0
"07/04/06","18:13:26","AMMA06",54627.000,"cc",28262.211,6.00,2826.221,1,6,0.100,26127.000,0.200,25101.000,0.300,2544.000,0.500,521.000,1.000,334.000,5.000,0
"07/04/06","18:13:32","AMMA06",55084.000,"cc",28394.002,6.00,2839.400,1,6,0.100,26245.000,0.200,25643.000,0.300,2348.000,0.500,522.000,1.000,326.000,5.000,0
"07/04/06","18:13:38","AMMA06",54747.000,"cc",28393.289,6.00,2839.329,1,6,0.100,26259.000,0.200,25250.000,0.300,2413.000,0.500,504.000,1.000,321.000,5.000,0
"07/04/06","18:13:44","AMMA06",54812.000,"cc",28275.211,6.00,2827.521,1,6,0.100,26257.000,0.200,25281.000,0.300,2403.000,0.500,550.000,1.000,321.000,5.000,0
"07/04/06","18:13:50","AMMA06",54902.000,"cc",28309.061,6.00,2830.906,1,6,0.100,26268.000,0.200,25388.000,0.300,2366.000,0.500,539.000,1.000,339.000,5.000,2.000
"07/04/06","18:13:56","AMMA06",54762.000,"cc",28272.113,6.00,2827.211,1,6,0.100,26421.000,0.200,25044.000,0.300,2425.000,0.500,544.000,1.000,328.000,5.000,0
"07/04/06","18:14:02","AMMA06",54210.000,"cc",28359.951,6.00,2835.995,1,6,0.100,25921.000,0.200,25067.000,0.300,2357.000,0.500,526.000,1.000,339.000,5.000,0
"07/04/06","18:14:08","AMMA06",54326.000,"cc",28346.693,6.00,2834.669,1,6,0.100,25817.000,0.200,25344.000,0.300,2328.000,0.500,534.000,1.000,303.000,5.000,0